Year,Month,Day,Hour,Minute,Value (Times are PST for temperature in C)
2015,07,03,00,00,15.20
2015,07,03,00,01,15.10
2015,07,03,00,02,15.10
2015,07,03,00,03,15.10
2015,07,03,00,04,15.10
2015,07,03,00,05,15.00
2015,07,03,00,06,15.00
2015,07,03,00,07,15.00
2015,07,03,00,08,15.00
2015,07,03,00,09,14.90
2015,07,03,00,10,14.90
2015,07,03,00,11,14.90
2015,07,03,00,12,14.90
2015,07,03,00,13,14.90
2015,07,03,00,14,14.90
2015,07,03,00,15,14.90
2015,07,03,00,16,15.00
2015,07,03,00,17,15.00
2015,07,03,00,18,15.00
2015,07,03,00,19,15.00
2015,07,03,00,20,15.10
2015,07,03,00,21,15.10
2015,07,03,00,22,15.10
2015,07,03,00,23,15.10
2015,07,03,00,24,15.10
2015,07,03,00,25,15.10
2015,07,03,00,26,15.20
2015,07,03,00,27,15.20
2015,07,03,00,28,15.20
2015,07,03,00,29,15.20
2015,07,03,00,30,15.30
2015,07,03,00,31,15.30
2015,07,03,00,32,15.30
2015,07,03,00,33,15.30
2015,07,03,00,34,15.30
2015,07,03,00,35,15.40
2015,07,03,00,36,15.40
2015,07,03,00,37,15.40
2015,07,03,00,38,15.40
2015,07,03,00,39,15.40
2015,07,03,00,40,15.40
2015,07,03,00,41,15.50
2015,07,03,00,42,15.50
2015,07,03,00,43,15.60
2015,07,03,00,44,15.60
2015,07,03,00,45,15.60
2015,07,03,00,46,15.70
2015,07,03,00,47,15.70
2015,07,03,00,48,15.70
2015,07,03,00,49,15.70
2015,07,03,00,50,15.80
2015,07,03,00,51,15.80
2015,07,03,00,52,15.80
2015,07,03,00,53,15.70
2015,07,03,00,54,15.70
2015,07,03,00,55,15.70
2015,07,03,00,56,15.70
2015,07,03,00,57,15.70
2015,07,03,00,58,15.70
2015,07,03,00,59,15.60
2015,07,03,01,00,15.60
2015,07,03,01,01,15.60
2015,07,03,01,02,15.60
2015,07,03,01,03,15.50
2015,07,03,01,04,15.50
2015,07,03,01,05,15.50
2015,07,03,01,06,15.40
2015,07,03,01,07,15.40
2015,07,03,01,08,15.40
2015,07,03,01,09,15.40
2015,07,03,01,10,15.40
2015,07,03,01,11,15.40
2015,07,03,01,12,15.30
2015,07,03,01,13,15.30
2015,07,03,01,14,15.30
2015,07,03,01,15,15.20
2015,07,03,01,16,15.20
2015,07,03,01,17,15.10
2015,07,03,01,18,15.10
2015,07,03,01,19,15.00
2015,07,03,01,20,15.00
2015,07,03,01,21,14.90
2015,07,03,01,22,14.90
2015,07,03,01,23,14.90
2015,07,03,01,24,14.80
2015,07,03,01,25,14.80
2015,07,03,01,26,14.80
2015,07,03,01,27,14.80
2015,07,03,01,28,14.70
2015,07,03,01,29,14.70
2015,07,03,01,30,14.70
2015,07,03,01,31,14.70
2015,07,03,01,32,14.70
2015,07,03,01,33,14.60
2015,07,03,01,34,14.60
2015,07,03,01,35,14.60
2015,07,03,01,36,14.60
2015,07,03,01,37,14.60
2015,07,03,01,38,14.50
2015,07,03,01,39,14.50
2015,07,03,01,40,14.50
2015,07,03,01,41,14.50
2015,07,03,01,42,14.40
2015,07,03,01,43,14.40
2015,07,03,01,44,14.40
2015,07,03,01,45,14.40
2015,07,03,01,46,14.40
2015,07,03,01,47,14.40
2015,07,03,01,48,14.40
2015,07,03,01,49,14.40
2015,07,03,01,50,14.30
2015,07,03,01,51,14.30
2015,07,03,01,52,14.30
2015,07,03,01,53,14.30
2015,07,03,01,54,14.30
2015,07,03,01,55,14.30
2015,07,03,01,56,14.20
2015,07,03,01,57,14.20
2015,07,03,01,58,14.20
2015,07,03,01,59,14.20
2015,07,03,02,00,14.20
2015,07,03,02,01,14.20
2015,07,03,02,02,14.10
2015,07,03,02,03,14.10
2015,07,03,02,04,14.10
2015,07,03,02,05,14.10
2015,07,03,02,06,14.00
2015,07,03,02,07,14.00
2015,07,03,02,08,14.00
2015,07,03,02,09,13.90
2015,07,03,02,10,13.90
2015,07,03,02,11,13.90
2015,07,03,02,12,13.90
2015,07,03,02,13,13.90
2015,07,03,02,14,13.90
2015,07,03,02,15,13.90
2015,07,03,02,16,13.90
2015,07,03,02,17,13.80
2015,07,03,02,18,13.90
2015,07,03,02,19,13.80
2015,07,03,02,20,13.80
2015,07,03,02,21,13.80
2015,07,03,02,22,13.80
2015,07,03,02,23,13.80
2015,07,03,02,24,13.80
2015,07,03,02,25,13.80
2015,07,03,02,26,13.80
2015,07,03,02,27,13.80
2015,07,03,02,28,13.80
2015,07,03,02,29,13.80
2015,07,03,02,30,13.80
2015,07,03,02,31,13.80
2015,07,03,02,32,13.80
2015,07,03,02,33,13.80
2015,07,03,02,34,13.90
2015,07,03,02,35,13.80
2015,07,03,02,36,13.80
2015,07,03,02,37,13.80
2015,07,03,02,38,13.80
2015,07,03,02,39,13.80
2015,07,03,02,40,13.80
2015,07,03,02,41,13.80
2015,07,03,02,42,13.80
2015,07,03,02,43,13.70
2015,07,03,02,44,13.70
2015,07,03,02,45,13.70
2015,07,03,02,46,13.70
2015,07,03,02,47,13.70
2015,07,03,02,48,13.70
2015,07,03,02,49,13.60
2015,07,03,02,50,13.60
2015,07,03,02,51,13.60
2015,07,03,02,52,13.60
2015,07,03,02,53,13.50
2015,07,03,02,54,13.50
2015,07,03,02,55,13.50
2015,07,03,02,56,13.40
2015,07,03,02,57,13.40
2015,07,03,02,58,13.40
2015,07,03,02,59,13.40
2015,07,03,03,00,13.40
2015,07,03,03,01,13.40
2015,07,03,03,02,13.40
2015,07,03,03,03,13.40
2015,07,03,03,04,13.30
2015,07,03,03,05,13.30
2015,07,03,03,06,13.30
2015,07,03,03,07,13.30
2015,07,03,03,08,13.30
2015,07,03,03,09,13.30
2015,07,03,03,10,13.30
2015,07,03,03,11,13.30
2015,07,03,03,12,13.30
2015,07,03,03,13,13.30
2015,07,03,03,14,13.30
2015,07,03,03,15,13.30
2015,07,03,03,16,13.30
2015,07,03,03,17,13.30
2015,07,03,03,18,13.30
2015,07,03,03,19,13.30
2015,07,03,03,20,13.20
2015,07,03,03,21,13.30
2015,07,03,03,22,13.20
2015,07,03,03,23,13.20
2015,07,03,03,24,13.20
2015,07,03,03,25,13.20
2015,07,03,03,26,13.20
2015,07,03,03,27,13.20
2015,07,03,03,28,13.20
2015,07,03,03,29,13.20
2015,07,03,03,30,13.20
2015,07,03,03,31,13.20
2015,07,03,03,32,13.20
2015,07,03,03,33,13.20
2015,07,03,03,34,13.20
2015,07,03,03,35,13.20
2015,07,03,03,36,13.20
2015,07,03,03,37,13.20
2015,07,03,03,38,13.20
2015,07,03,03,39,13.20
2015,07,03,03,40,13.20
2015,07,03,03,41,13.20
2015,07,03,03,42,13.20
2015,07,03,03,43,13.20
2015,07,03,03,44,13.10
2015,07,03,03,45,13.10
2015,07,03,03,46,13.10
2015,07,03,03,47,13.10
2015,07,03,03,48,13.10
2015,07,03,03,49,13.10
2015,07,03,03,50,13.10
2015,07,03,03,51,13.10
2015,07,03,03,52,13.20
2015,07,03,03,53,13.10
2015,07,03,03,54,13.10
2015,07,03,03,55,13.10
2015,07,03,03,56,13.10
2015,07,03,03,57,13.20
2015,07,03,03,58,13.20
2015,07,03,03,59,13.20
2015,07,03,04,00,13.20
2015,07,03,04,01,13.20
2015,07,03,04,02,13.20
2015,07,03,04,03,13.20
2015,07,03,04,04,13.20
2015,07,03,04,05,13.20
2015,07,03,04,06,13.20
2015,07,03,04,07,13.20
2015,07,03,04,08,13.20
2015,07,03,04,09,13.10
2015,07,03,04,10,13.10
2015,07,03,04,11,13.10
2015,07,03,04,12,13.10
2015,07,03,04,13,13.10
2015,07,03,04,14,13.10
2015,07,03,04,15,13.10
2015,07,03,04,16,13.10
2015,07,03,04,17,13.10
2015,07,03,04,18,13.10
2015,07,03,04,19,13.10
2015,07,03,04,20,13.10
2015,07,03,04,21,13.10
2015,07,03,04,22,13.10
2015,07,03,04,23,13.10
2015,07,03,04,24,13.10
2015,07,03,04,25,13.10
2015,07,03,04,26,13.10
2015,07,03,04,27,13.10
2015,07,03,04,28,13.10
2015,07,03,04,29,13.10
2015,07,03,04,30,13.10
2015,07,03,04,31,13.10
2015,07,03,04,32,13.10
2015,07,03,04,33,13.10
2015,07,03,04,34,13.10
2015,07,03,04,35,13.10
2015,07,03,04,36,13.10
2015,07,03,04,37,13.10
2015,07,03,04,38,13.10
2015,07,03,04,39,13.10
2015,07,03,04,40,13.10
2015,07,03,04,41,13.10
2015,07,03,04,42,13.10
2015,07,03,04,43,13.10
2015,07,03,04,44,13.10
2015,07,03,04,45,13.10
2015,07,03,04,46,13.10
2015,07,03,04,47,13.10
2015,07,03,04,48,13.10
2015,07,03,04,49,13.10
2015,07,03,04,50,13.10
2015,07,03,04,51,13.10
2015,07,03,04,52,13.10
2015,07,03,04,53,13.10
2015,07,03,04,54,13.10
2015,07,03,04,55,13.10
2015,07,03,04,56,13.10
2015,07,03,04,57,13.10
2015,07,03,04,58,13.10
2015,07,03,04,59,13.10
2015,07,03,05,00,13.10
2015,07,03,05,01,13.10
2015,07,03,05,02,13.10
2015,07,03,05,03,13.10
2015,07,03,05,04,13.10
2015,07,03,05,05,13.10
2015,07,03,05,06,13.10
2015,07,03,05,07,13.10
2015,07,03,05,08,13.10
2015,07,03,05,09,13.10
2015,07,03,05,10,13.10
2015,07,03,05,11,13.10
2015,07,03,05,12,13.10
2015,07,03,05,13,13.10
2015,07,03,05,14,13.10
2015,07,03,05,15,13.00
2015,07,03,05,16,13.00
2015,07,03,05,17,13.00
2015,07,03,05,18,13.00
2015,07,03,05,19,13.00
2015,07,03,05,20,13.00
2015,07,03,05,21,13.00
2015,07,03,05,22,13.10
2015,07,03,05,23,13.10
2015,07,03,05,24,13.10
2015,07,03,05,25,13.00
2015,07,03,05,26,13.00
2015,07,03,05,27,13.00
2015,07,03,05,28,13.00
2015,07,03,05,29,13.00
2015,07,03,05,30,13.00
2015,07,03,05,31,13.00
2015,07,03,05,32,13.00
2015,07,03,05,33,13.00
2015,07,03,05,34,13.00
2015,07,03,05,35,13.00
2015,07,03,05,36,12.90
2015,07,03,05,37,12.90
2015,07,03,05,38,12.90
2015,07,03,05,39,12.90
2015,07,03,05,40,12.90
2015,07,03,05,41,12.90
2015,07,03,05,42,12.90
2015,07,03,05,43,12.90
2015,07,03,05,44,12.90
2015,07,03,05,45,12.90
2015,07,03,05,46,12.90
2015,07,03,05,47,12.90
2015,07,03,05,48,12.90
2015,07,03,05,49,12.90
2015,07,03,05,50,12.90
2015,07,03,05,51,12.90
2015,07,03,05,52,13.00
2015,07,03,05,53,13.00
2015,07,03,05,54,13.00
2015,07,03,05,55,13.00
2015,07,03,05,56,13.00
2015,07,03,05,57,13.00
2015,07,03,05,58,13.00
2015,07,03,05,59,13.10
2015,07,03,06,00,13.10
2015,07,03,06,01,13.10
2015,07,03,06,02,13.10
2015,07,03,06,03,13.10
2015,07,03,06,04,13.10
2015,07,03,06,05,13.20
2015,07,03,06,06,13.20
2015,07,03,06,07,13.20
2015,07,03,06,08,13.20
2015,07,03,06,09,13.20
2015,07,03,06,10,13.20
2015,07,03,06,11,13.30
2015,07,03,06,12,13.30
2015,07,03,06,13,13.30
2015,07,03,06,14,13.30
2015,07,03,06,15,13.30
2015,07,03,06,16,13.40
2015,07,03,06,17,13.40
2015,07,03,06,18,13.40
2015,07,03,06,19,13.40
2015,07,03,06,20,13.40
2015,07,03,06,21,13.40
2015,07,03,06,22,13.40
2015,07,03,06,23,13.40
2015,07,03,06,24,13.40
2015,07,03,06,25,13.40
2015,07,03,06,26,13.40
2015,07,03,06,27,13.40
2015,07,03,06,28,13.40
2015,07,03,06,29,13.80
2015,07,03,06,30,13.80
2015,07,03,06,31,13.90
2015,07,03,06,32,13.90
2015,07,03,06,33,14.00
2015,07,03,06,34,14.00
2015,07,03,06,35,14.10
2015,07,03,06,36,14.20
2015,07,03,06,37,14.20
2015,07,03,06,38,14.30
2015,07,03,06,39,14.40
2015,07,03,06,40,14.40
2015,07,03,06,41,14.50
2015,07,03,06,42,14.60
2015,07,03,06,43,14.60
2015,07,03,06,44,14.70
2015,07,03,06,45,14.80
2015,07,03,06,46,14.80
2015,07,03,06,47,14.90
2015,07,03,06,48,15.00
2015,07,03,06,49,15.00
2015,07,03,06,50,15.10
2015,07,03,06,51,15.20
2015,07,03,06,52,15.20
2015,07,03,06,53,15.30
2015,07,03,06,54,15.30
2015,07,03,06,55,15.40
2015,07,03,06,56,15.50
2015,07,03,06,57,15.50
2015,07,03,06,58,15.60
2015,07,03,06,59,15.60
2015,07,03,07,00,15.70
2015,07,03,07,01,15.80
2015,07,03,07,02,15.80
2015,07,03,07,03,15.80
2015,07,03,07,04,15.90
2015,07,03,07,05,15.90
2015,07,03,07,06,16.00
2015,07,03,07,07,16.00
2015,07,03,07,08,16.10
2015,07,03,07,09,16.10
2015,07,03,07,10,16.20
2015,07,03,07,11,16.20
2015,07,03,07,12,16.30
2015,07,03,07,13,16.30
2015,07,03,07,14,16.40
2015,07,03,07,15,16.40
2015,07,03,07,16,16.50
2015,07,03,07,17,16.50
2015,07,03,07,18,16.60
2015,07,03,07,19,16.70
2015,07,03,07,20,16.70
2015,07,03,07,21,16.80
2015,07,03,07,22,16.80
2015,07,03,07,23,16.90
2015,07,03,07,24,16.90
2015,07,03,07,25,16.90
2015,07,03,07,26,16.90
2015,07,03,07,27,16.90
2015,07,03,07,28,16.90
2015,07,03,07,29,16.90
2015,07,03,07,30,16.90
2015,07,03,07,31,16.80
2015,07,03,07,32,16.80
2015,07,03,07,33,16.70
2015,07,03,07,34,16.70
2015,07,03,07,35,16.60
2015,07,03,07,36,16.60
2015,07,03,07,37,16.60
2015,07,03,07,38,16.60
2015,07,03,07,39,16.60
2015,07,03,07,40,16.70
2015,07,03,07,41,16.70
2015,07,03,07,42,16.70
2015,07,03,07,43,16.70
2015,07,03,07,44,16.80
2015,07,03,07,45,16.80
2015,07,03,07,46,16.80
2015,07,03,07,47,16.80
2015,07,03,07,48,16.80
2015,07,03,07,49,16.90
2015,07,03,07,50,16.90
2015,07,03,07,51,17.00
2015,07,03,07,52,17.00
2015,07,03,07,53,17.00
2015,07,03,07,54,17.10
2015,07,03,07,55,17.10
2015,07,03,07,56,17.20
2015,07,03,07,57,17.30
2015,07,03,07,58,17.30
2015,07,03,07,59,17.40
2015,07,03,08,00,17.50
2015,07,03,08,01,17.50
2015,07,03,08,02,17.60
2015,07,03,08,03,17.70
2015,07,03,08,04,17.80
2015,07,03,08,05,17.90
2015,07,03,08,06,17.90
2015,07,03,08,07,18.00
2015,07,03,08,08,18.10
2015,07,03,08,09,18.20
2015,07,03,08,10,18.30
2015,07,03,08,11,18.50
2015,07,03,08,12,18.50
2015,07,03,08,13,18.70
2015,07,03,08,14,18.80
2015,07,03,08,15,18.80
2015,07,03,08,16,18.90
2015,07,03,08,17,19.00
2015,07,03,08,18,19.10
2015,07,03,08,19,19.20
2015,07,03,08,20,19.20
2015,07,03,08,21,19.30
2015,07,03,08,22,19.40
2015,07,03,08,23,19.50
2015,07,03,08,24,19.60
2015,07,03,08,25,19.70
2015,07,03,08,26,19.80
2015,07,03,08,27,19.90
2015,07,03,08,28,20.00
2015,07,03,08,29,20.10
2015,07,03,08,30,20.20
2015,07,03,08,31,20.20
2015,07,03,08,32,20.30
2015,07,03,08,33,20.30
2015,07,03,08,34,20.30
2015,07,03,08,35,20.40
2015,07,03,08,36,20.40
2015,07,03,08,37,20.50
2015,07,03,08,38,20.60
2015,07,03,08,39,20.60
2015,07,03,08,40,20.70
2015,07,03,08,41,20.70
2015,07,03,08,42,20.80
2015,07,03,08,43,20.80
2015,07,03,08,44,20.90
2015,07,03,08,45,21.00
2015,07,03,08,46,21.00
2015,07,03,08,47,21.10
2015,07,03,08,48,21.20
2015,07,03,08,49,21.20
2015,07,03,08,50,21.20
2015,07,03,08,51,21.30
2015,07,03,08,52,21.30
2015,07,03,08,53,21.40
2015,07,03,08,54,21.40
2015,07,03,08,55,21.50
2015,07,03,08,56,21.50
2015,07,03,08,57,21.60
2015,07,03,08,58,21.60
2015,07,03,08,59,21.60
2015,07,03,09,00,21.60
2015,07,03,09,01,21.60
2015,07,03,09,02,21.60
2015,07,03,09,03,21.60
2015,07,03,09,04,21.50
2015,07,03,09,05,21.50
2015,07,03,09,06,21.50
2015,07,03,09,07,21.50
2015,07,03,09,08,21.50
2015,07,03,09,09,21.60
2015,07,03,09,10,21.60
2015,07,03,09,11,21.60
2015,07,03,09,12,21.60
2015,07,03,09,13,21.60
2015,07,03,09,14,21.60
2015,07,03,09,15,21.60
2015,07,03,09,16,21.70
2015,07,03,09,17,21.70
2015,07,03,09,18,21.70
2015,07,03,09,19,21.70
2015,07,03,09,20,21.80
2015,07,03,09,21,21.80
2015,07,03,09,22,21.80
2015,07,03,09,23,21.80
2015,07,03,09,24,21.80
2015,07,03,09,25,21.80
2015,07,03,09,26,21.80
2015,07,03,09,27,21.70
2015,07,03,09,28,21.70
2015,07,03,09,29,21.70
2015,07,03,09,30,21.70
2015,07,03,09,31,21.70
2015,07,03,09,32,21.70
2015,07,03,09,33,21.70
2015,07,03,09,34,21.70
2015,07,03,09,35,21.70
2015,07,03,09,36,21.60
2015,07,03,09,37,21.60
2015,07,03,09,38,21.60
2015,07,03,09,39,21.60
2015,07,03,09,40,21.60
2015,07,03,09,41,21.60
2015,07,03,09,42,21.60
2015,07,03,09,43,21.60
2015,07,03,09,44,21.60
2015,07,03,09,45,21.60
2015,07,03,09,46,21.60
2015,07,03,09,47,21.60
2015,07,03,09,48,21.60
2015,07,03,09,49,21.60
2015,07,03,09,50,21.60
2015,07,03,09,51,21.60
2015,07,03,09,52,21.60
2015,07,03,09,53,21.70
2015,07,03,09,54,21.70
2015,07,03,09,55,21.70
2015,07,03,09,56,21.70
2015,07,03,09,57,21.70
2015,07,03,09,58,21.70
2015,07,03,09,59,21.70
2015,07,03,10,00,21.70
2015,07,03,10,01,21.70
2015,07,03,10,02,21.70
2015,07,03,10,03,21.70
2015,07,03,10,04,21.60
2015,07,03,10,05,21.60
2015,07,03,10,06,21.60
2015,07,03,10,07,21.60
2015,07,03,10,08,21.50
2015,07,03,10,09,21.50
2015,07,03,10,10,21.50
2015,07,03,10,11,21.50
2015,07,03,10,12,21.40
2015,07,03,10,13,21.40
2015,07,03,10,14,21.40
2015,07,03,10,15,21.30
2015,07,03,10,16,21.30
2015,07,03,10,17,21.30
2015,07,03,10,18,21.30
2015,07,03,10,19,21.30
2015,07,03,10,20,21.40
2015,07,03,10,21,21.40
2015,07,03,10,22,21.40
2015,07,03,10,23,21.50
2015,07,03,10,24,21.50
2015,07,03,10,25,21.60
2015,07,03,10,26,21.60
2015,07,03,10,27,21.60
2015,07,03,10,28,21.60
2015,07,03,10,29,21.70
2015,07,03,10,30,21.70
2015,07,03,10,31,21.70
2015,07,03,10,32,21.80
2015,07,03,10,33,21.80
2015,07,03,10,34,21.80
2015,07,03,10,35,21.80
2015,07,03,10,36,21.80
2015,07,03,10,37,21.80
2015,07,03,10,38,21.80
2015,07,03,10,39,21.80
2015,07,03,10,40,21.80
2015,07,03,10,41,21.80
2015,07,03,10,42,21.80
2015,07,03,10,43,21.80
2015,07,03,10,44,21.80
2015,07,03,10,45,21.80
2015,07,03,10,46,21.90
2015,07,03,10,47,21.90
2015,07,03,10,48,22.00
2015,07,03,10,49,22.00
2015,07,03,10,50,22.10
2015,07,03,10,51,22.10
2015,07,03,10,52,22.20
2015,07,03,10,53,22.20
2015,07,03,10,54,22.20
2015,07,03,10,55,22.10
2015,07,03,10,56,22.10
2015,07,03,10,57,22.20
2015,07,03,10,58,22.20
2015,07,03,10,59,22.20
2015,07,03,11,00,22.20
2015,07,03,11,01,22.30
2015,07,03,11,02,22.30
2015,07,03,11,03,22.40
2015,07,03,11,04,22.30
2015,07,03,11,05,22.30
2015,07,03,11,06,22.30
2015,07,03,11,07,22.30
2015,07,03,11,08,22.30
2015,07,03,11,09,22.30
2015,07,03,11,10,22.30
2015,07,03,11,11,22.40
2015,07,03,11,12,22.40
2015,07,03,11,13,22.40
2015,07,03,11,14,22.40
2015,07,03,11,15,22.40
2015,07,03,11,16,22.50
2015,07,03,11,17,22.50
2015,07,03,11,18,22.60
2015,07,03,11,19,22.60
2015,07,03,11,20,22.60
2015,07,03,11,21,22.60
2015,07,03,11,22,22.60
2015,07,03,11,23,22.50
2015,07,03,11,24,22.50
2015,07,03,11,25,22.50
2015,07,03,11,26,22.50
2015,07,03,11,27,22.50
2015,07,03,11,28,22.40
2015,07,03,11,29,22.40
2015,07,03,11,30,22.40
2015,07,03,11,31,22.40
2015,07,03,11,32,22.40
2015,07,03,11,33,22.30
2015,07,03,11,34,22.30
2015,07,03,11,35,22.30
2015,07,03,11,36,22.30
2015,07,03,11,37,22.30
2015,07,03,11,38,22.30
2015,07,03,11,39,22.30
2015,07,03,11,40,22.40
2015,07,03,11,41,22.40
2015,07,03,11,42,22.40
2015,07,03,11,43,22.40
2015,07,03,11,44,22.40
2015,07,03,11,45,22.40
2015,07,03,11,46,22.40
2015,07,03,11,47,22.40
2015,07,03,11,48,22.40
2015,07,03,11,49,22.40
2015,07,03,11,50,22.40
2015,07,03,11,51,22.40
2015,07,03,11,52,22.30
2015,07,03,11,53,22.30
2015,07,03,11,54,22.30
2015,07,03,11,55,22.30
2015,07,03,11,56,22.30
2015,07,03,11,57,22.30
2015,07,03,11,58,22.40
2015,07,03,11,59,22.40
2015,07,03,12,00,22.40
2015,07,03,12,01,22.50
2015,07,03,12,02,22.50
2015,07,03,12,03,22.60
2015,07,03,12,04,22.70
2015,07,03,12,05,22.70
2015,07,03,12,06,22.80
2015,07,03,12,07,22.80
2015,07,03,12,08,22.80
2015,07,03,12,09,22.80
2015,07,03,12,10,22.90
2015,07,03,12,11,23.00
2015,07,03,12,12,23.00
2015,07,03,12,13,23.10
2015,07,03,12,14,23.10
2015,07,03,12,15,23.10
2015,07,03,12,16,23.10
2015,07,03,12,17,23.00
2015,07,03,12,18,23.00
2015,07,03,12,19,23.00
2015,07,03,12,20,23.00
2015,07,03,12,21,23.00
2015,07,03,12,22,23.00
2015,07,03,12,23,23.00
2015,07,03,12,24,23.00
2015,07,03,12,25,23.10
2015,07,03,12,26,23.10
2015,07,03,12,27,23.10
2015,07,03,12,28,23.20
2015,07,03,12,29,23.20
2015,07,03,12,30,23.30
2015,07,03,12,31,23.30
2015,07,03,12,32,23.30
2015,07,03,12,33,23.30
2015,07,03,12,34,23.40
2015,07,03,12,35,23.40
2015,07,03,12,36,23.40
2015,07,03,12,37,23.40
2015,07,03,12,38,23.40
2015,07,03,12,39,23.40
2015,07,03,12,40,23.40
2015,07,03,12,41,23.40
2015,07,03,12,42,23.40
2015,07,03,12,43,23.40
2015,07,03,12,44,23.40
2015,07,03,12,45,23.40
2015,07,03,12,46,23.30
2015,07,03,12,47,23.30
2015,07,03,12,48,23.30
2015,07,03,12,49,23.20
2015,07,03,12,50,23.20
2015,07,03,12,51,23.10
2015,07,03,12,52,23.00
2015,07,03,12,53,23.00
2015,07,03,12,54,22.90
2015,07,03,12,55,22.90
2015,07,03,12,56,22.90
2015,07,03,12,57,22.90
2015,07,03,12,58,22.80
2015,07,03,12,59,22.80
2015,07,03,13,00,22.80
2015,07,03,13,01,22.80
2015,07,03,13,02,22.90
2015,07,03,13,03,22.90
2015,07,03,13,04,22.90
2015,07,03,13,05,23.00
2015,07,03,13,06,23.10
2015,07,03,13,07,23.10
2015,07,03,13,08,23.20
2015,07,03,13,09,23.30
2015,07,03,13,10,23.30
2015,07,03,13,11,23.30
2015,07,03,13,12,23.30
2015,07,03,13,13,23.40
2015,07,03,13,14,23.40
2015,07,03,13,15,23.50
2015,07,03,13,16,23.50
2015,07,03,13,17,23.50
2015,07,03,13,18,23.60
2015,07,03,13,19,23.60
2015,07,03,13,20,23.60
2015,07,03,13,21,23.70
2015,07,03,13,22,23.80
2015,07,03,13,23,23.80
2015,07,03,13,24,23.90
2015,07,03,13,25,23.90
2015,07,03,13,26,24.00
2015,07,03,13,27,24.10
2015,07,03,13,28,24.20
2015,07,03,13,29,24.20
2015,07,03,13,30,24.30
2015,07,03,13,31,24.30
2015,07,03,13,32,24.40
2015,07,03,13,33,24.40
2015,07,03,13,34,24.40
2015,07,03,13,35,24.40
2015,07,03,13,36,24.40
2015,07,03,13,37,24.40
2015,07,03,13,38,24.40
2015,07,03,13,39,24.40
2015,07,03,13,40,24.30
2015,07,03,13,41,24.20
2015,07,03,13,42,24.20
2015,07,03,13,43,24.20
2015,07,03,13,44,24.10
2015,07,03,13,45,24.10
2015,07,03,13,46,24.10
2015,07,03,13,47,24.10
2015,07,03,13,48,24.10
2015,07,03,13,49,24.10
2015,07,03,13,50,24.10
2015,07,03,13,51,24.10
2015,07,03,13,52,24.10
2015,07,03,13,53,24.10
2015,07,03,13,54,24.20
2015,07,03,13,55,24.20
2015,07,03,13,56,24.20
2015,07,03,13,57,24.20
2015,07,03,13,58,24.20
2015,07,03,13,59,24.20
2015,07,03,14,00,24.20
2015,07,03,14,01,24.20
2015,07,03,14,02,24.20
2015,07,03,14,03,24.20
2015,07,03,14,04,24.30
2015,07,03,14,05,24.30
2015,07,03,14,06,24.30
2015,07,03,14,07,24.30
2015,07,03,14,08,24.30
2015,07,03,14,09,24.20
2015,07,03,14,10,24.20
2015,07,03,14,11,24.10
2015,07,03,14,12,24.10
2015,07,03,14,13,24.00
2015,07,03,14,14,24.00
2015,07,03,14,15,23.90
2015,07,03,14,16,24.00
2015,07,03,14,17,24.00
2015,07,03,14,18,24.00
2015,07,03,14,19,24.10
2015,07,03,14,20,24.10
2015,07,03,14,21,24.10
2015,07,03,14,22,24.10
2015,07,03,14,23,24.10
2015,07,03,14,24,24.10
2015,07,03,14,25,24.10
2015,07,03,14,26,24.10
2015,07,03,14,27,24.10
2015,07,03,14,28,24.10
2015,07,03,14,29,24.20
2015,07,03,14,30,24.20
2015,07,03,14,31,24.20
2015,07,03,14,32,24.20
2015,07,03,14,33,24.20
2015,07,03,14,34,24.20
2015,07,03,14,35,24.20
2015,07,03,14,36,24.10
2015,07,03,14,37,24.10
2015,07,03,14,38,24.10
2015,07,03,14,39,24.20
2015,07,03,14,40,24.20
2015,07,03,14,41,24.20
2015,07,03,14,42,24.20
2015,07,03,14,43,24.20
2015,07,03,14,44,24.20
2015,07,03,14,45,24.20
2015,07,03,14,46,24.20
2015,07,03,14,47,24.20
2015,07,03,14,48,24.20
2015,07,03,14,49,24.10
2015,07,03,14,50,24.10
2015,07,03,14,51,24.10
2015,07,03,14,52,24.00
2015,07,03,14,53,23.90
2015,07,03,14,54,23.90
2015,07,03,14,55,23.80
2015,07,03,14,56,23.80
2015,07,03,14,57,23.80
2015,07,03,14,58,23.80
2015,07,03,14,59,23.80
2015,07,03,15,00,23.80
2015,07,03,15,01,23.80
2015,07,03,15,02,23.80
2015,07,03,15,03,23.80
2015,07,03,15,04,23.90
2015,07,03,15,05,23.90
2015,07,03,15,06,24.00
2015,07,03,15,07,24.00
2015,07,03,15,08,24.10
2015,07,03,15,09,24.10
2015,07,03,15,10,24.10
2015,07,03,15,11,24.10
2015,07,03,15,12,24.20
2015,07,03,15,13,24.20
2015,07,03,15,14,24.20
2015,07,03,15,15,24.20
2015,07,03,15,16,24.20
2015,07,03,15,17,24.20
2015,07,03,15,18,24.20
2015,07,03,15,19,24.20
2015,07,03,15,20,24.10
2015,07,03,15,21,24.10
2015,07,03,15,22,24.00
2015,07,03,15,23,24.00
2015,07,03,15,24,24.00
2015,07,03,15,25,24.00
2015,07,03,15,26,24.00
2015,07,03,15,27,24.00
2015,07,03,15,28,24.10
2015,07,03,15,29,24.10
2015,07,03,15,30,24.10
2015,07,03,15,31,24.20
2015,07,03,15,32,24.20
2015,07,03,15,33,24.20
2015,07,03,15,34,24.20
2015,07,03,15,35,24.20
2015,07,03,15,36,24.20
2015,07,03,15,37,24.30
2015,07,03,15,38,24.30
2015,07,03,15,39,24.30
2015,07,03,15,40,24.30
2015,07,03,15,41,24.30
2015,07,03,15,42,24.30
2015,07,03,15,43,24.30
2015,07,03,15,44,24.30
2015,07,03,15,45,24.30
2015,07,03,15,46,24.20
2015,07,03,15,47,24.20
2015,07,03,15,48,24.20
2015,07,03,15,49,24.10
2015,07,03,15,50,24.10
2015,07,03,15,51,24.10
2015,07,03,15,52,24.20
2015,07,03,15,53,24.20
2015,07,03,15,54,24.20
2015,07,03,15,55,24.20
2015,07,03,15,56,24.30
2015,07,03,15,57,24.30
2015,07,03,15,58,24.40
2015,07,03,15,59,24.40
2015,07,03,16,00,24.50
2015,07,03,16,01,24.60
2015,07,03,16,02,24.60
2015,07,03,16,03,24.70
2015,07,03,16,04,24.80
2015,07,03,16,05,24.90
2015,07,03,16,06,24.90
2015,07,03,16,07,25.00
2015,07,03,16,08,25.00
2015,07,03,16,09,25.00
2015,07,03,16,10,25.10
2015,07,03,16,11,25.10
2015,07,03,16,12,25.10
2015,07,03,16,13,25.20
2015,07,03,16,14,25.20
2015,07,03,16,15,25.20
2015,07,03,16,16,25.20
2015,07,03,16,17,25.20
2015,07,03,16,18,25.20
2015,07,03,16,19,25.20
2015,07,03,16,20,25.10
2015,07,03,16,21,25.10
2015,07,03,16,22,25.10
2015,07,03,16,23,25.10
2015,07,03,16,24,25.10
2015,07,03,16,25,25.10
2015,07,03,16,26,25.10
2015,07,03,16,27,25.20
2015,07,03,16,28,25.20
2015,07,03,16,29,25.20
2015,07,03,16,30,25.20
2015,07,03,16,31,25.20
2015,07,03,16,32,25.30
2015,07,03,16,33,25.30
2015,07,03,16,34,25.40
2015,07,03,16,35,25.40
2015,07,03,16,36,25.50
2015,07,03,16,37,25.60
2015,07,03,16,38,25.60
2015,07,03,16,39,25.60
2015,07,03,16,40,25.50
2015,07,03,16,41,25.50
2015,07,03,16,42,25.40
2015,07,03,16,43,25.30
2015,07,03,16,44,25.20
2015,07,03,16,45,25.20
2015,07,03,16,46,25.10
2015,07,03,16,47,25.10
2015,07,03,16,48,25.10
2015,07,03,16,49,25.00
2015,07,03,16,50,25.00
2015,07,03,16,51,24.90
2015,07,03,16,52,24.80
2015,07,03,16,53,24.80
2015,07,03,16,54,24.70
2015,07,03,16,55,24.70
2015,07,03,16,56,24.70
2015,07,03,16,57,24.70
2015,07,03,16,58,24.80
2015,07,03,16,59,24.80
2015,07,03,17,00,24.90
2015,07,03,17,01,24.90
2015,07,03,17,02,25.00
2015,07,03,17,03,25.00
2015,07,03,17,04,25.10
2015,07,03,17,05,25.10
2015,07,03,17,06,25.10
2015,07,03,17,07,25.10
2015,07,03,17,08,25.20
2015,07,03,17,09,25.20
2015,07,03,17,10,25.20
2015,07,03,17,11,25.00
2015,07,03,17,12,24.90
2015,07,03,17,13,24.70
2015,07,03,17,14,24.50
2015,07,03,17,15,24.30
2015,07,03,17,16,24.10
2015,07,03,17,17,23.90
2015,07,03,17,18,23.70
2015,07,03,17,19,23.60